QPF
0.04 0.02 0.01 0.01 0.02 0.01 0.02 0.04 0.05 0.06 0.05 0.04 0.05 0.07 0.07 0.05 0.03 0.02 0.02 0.03 0.03 0.03 0.06 0.12 0.09 0.10 0.08 0.07 0.07 0.10 0.13 0.12 0.10 0.16 0.14 0.14 0.16 0.14 0.10 0.11 0.12 0.10 0.12
0.04 0.02 0.01 0.01 0.01 0.02 0.01 0.01 0.03 0.04 0.04 0.03 0.04 0.05 0.07 0.07 0.06 0.04 0.03 0.03 0.03 0.04 0.06 0.09 0.09 0.09 0.07 0.06 0.07 0.10 0.23 0.15 0.11 0.20 0.22 0.20 0.18 0.14 0.09 0.08 0.12 0.14 0.14
0.10 0.06 0.02 0.01 0.01 0.02 0.02 0.01 0.01 0.01 0.02 0.02 0.02 0.02 0.04 0.05 0.06 0.07 0.06 0.06 0.04 0.07 0.08 0.12 0.13 0.10 0.09 0.08 0.08 0.08 0.18 0.13 0.12 0.17 0.24 0.24 0.21 0.15 0.11 0.10 0.12 0.11 0.11
0.06 0.06 0.02 0.01 0.01 0.02 0.02 0.02 0.03 0.02 0.02 0.01 0.01 0.02 0.03 0.03 0.04 0.06 0.08 0.09 0.07 0.11 0.11 0.13 0.15 0.12 0.12 0.11 0.08 0.09 0.14 0.12 0.12 0.14 0.20 0.20 0.18 0.16 0.13 0.12 0.14 0.11 0.10
0.02 0.02 0.01 0.01 0.02 0.02 0.02 0.02 0.04 0.04 0.04 0.02 0.01 0.02 0.02 0.02 0.02 0.03 0.06 0.09 0.08 0.08 0.10 0.10 0.12 0.15 0.13 0.10 0.09 0.13 0.17 0.15 0.14 0.14 0.16 0.15 0.13 0.13 0.15 0.17 0.17 0.10 0.09
0.02 0.01 0.01 0.01 0.01 0.02 0.02 0.03 0.02 0.03 0.03 0.02 0.02 0.02 0.02 0.02 0.02 0.04 0.05 0.05 0.05 0.05 0.05 0.07 0.09 0.11 0.12 0.11 0.11 0.18 0.22 0.21 0.19 0.14 0.15 0.14 0.13 0.15 0.18 0.21 0.20 0.11 0.10
0.01 0.02 0.02 0.01 0.01 0.02 0.03 0.03 0.03 0.03 0.03 0.04 0.03 0.02 0.02 0.03 0.03 0.03 0.05 0.04 0.04 0.04 0.05 0.05 0.06 0.09 0.14 0.13 0.12 0.15 0.24 0.27 0.22 0.16 0.14 0.16 0.16 0.18 0.20 0.21 0.19 0.15 0.13
0.01 0.03 0.04 0.03 0.02 0.02 0.03 0.03 0.04 0.04 0.03 0.03 0.05 0.03 0.02 0.03 0.04 0.04 0.04 0.04 0.05 0.05 0.05 0.05 0.04 0.08 0.13 0.10 0.09 0.09 0.14 0.27 0.23 0.18 0.15 0.14 0.19 0.22 0.18 0.16 0.16 0.14 0.12
0.02 0.03 0.05 0.05 0.04 0.03 0.04 0.03 0.03 0.04 0.03 0.04 0.07 0.05 0.03 0.03 0.04 0.05 0.06 0.06 0.08 0.05 0.05 0.04 0.05 0.06 0.06 0.05 0.06 0.08 0.10 0.19 0.16 0.18 0.17 0.17 0.22 0.25 0.19 0.16 0.14 0.09 0.08
0.03 0.03 0.04 0.06 0.05 0.03 0.03 0.03 0.03 0.03 0.03 0.03 0.04 0.04 0.03 0.04 0.04 0.06 0.07 0.08 0.10 0.06 0.05 0.04 0.04 0.04 0.03 0.03 0.03 0.04 0.07 0.13 0.12 0.15 0.15 0.17 0.20 0.24 0.23 0.15 0.10 0.07 0.07
0.04 0.04 0.04 0.05 0.05 0.03 0.02 0.02 0.03 0.04 0.04 0.04 0.04 0.05 0.06 0.07 0.06 0.06 0.06 0.10 0.09 0.10 0.09 0.06 0.03 0.03 0.03 0.03 0.03 0.03 0.07 0.11 0.11 0.14 0.11 0.14 0.16 0.19 0.23 0.19 0.10 0.06 0.06
0.05 0.06 0.05 0.03 0.05 0.04 0.02 0.02 0.03 0.04 0.06 0.07 0.07 0.07 0.08 0.07 0.08 0.07 0.07 0.10 0.12 0.10 0.10 0.08 0.06 0.05 0.06 0.03 0.03 0.04 0.06 0.07 0.09 0.10 0.10 0.10 0.11 0.14 0.18 0.19 0.18 0.10 0.05
0.05 0.06 0.05 0.05 0.04 0.04 0.03 0.02 0.02 0.04 0.07 0.09 0.08 0.08 0.11 0.09 0.09 0.10 0.08 0.08 0.10 0.12 0.12 0.08 0.08 0.11 0.09 0.05 0.04 0.04 0.05 0.06 0.07 0.09 0.09 0.07 0.08 0.11 0.15 0.15 0.20 0.20 0.09
0.05 0.05 0.04 0.06 0.06 0.05 0.03 0.02 0.02 0.03 0.04 0.08 0.12 0.12 0.13 0.14 0.09 0.09 0.09 0.08 0.09 0.11 0.15 0.12 0.09 0.10 0.09 0.06 0.05 0.06 0.04 0.04 0.05 0.06 0.07 0.05 0.05 0.09 0.11 0.10 0.14 0.22 0.18
0.03 0.03 0.03 0.05 0.05 0.05 0.04 0.03 0.03 0.04 0.04 0.06 0.10 0.12 0.14 0.17 0.11 0.08 0.09 0.10 0.10 0.10 0.11 0.14 0.11 0.09 0.08 0.06 0.05 0.04 0.04 0.04 0.04 0.06 0.06 0.04 0.04 0.07 0.09 0.09 0.10 0.16 0.19
0.04 0.02 0.02 0.03 0.03 0.04 0.04 0.03 0.03 0.04 0.04 0.05 0.07 0.11 0.10 0.12 0.12 0.08 0.08 0.10 0.14 0.12 0.11 0.13 0.16 0.11 0.07 0.05 0.04 0.04 0.04 0.03 0.03 0.05 0.05 0.04 0.06 0.06 0.06 0.07 0.07 0.09 0.15
0.04 0.03 0.02 0.01 0.02 0.02 0.02 0.02 0.03 0.04 0.04 0.04 0.06 0.13 0.11 0.10 0.09 0.07 0.06 0.07 0.12 0.13 0.12 0.11 0.14 0.14 0.09 0.05 0.04 0.04 0.03 0.03 0.03 0.04 0.04 0.04 0.05 0.05 0.04 0.05 0.05 0.05 0.07
0.02 0.02 0.04 0.02 0.02 0.02 0.02 0.04 0.05 0.04 0.04 0.04 0.05 0.09 0.14 0.12 0.09 0.06 0.04 0.06 0.10 0.12 0.12 0.09 0.08 0.12 0.15 0.09 0.05 0.04 0.03 0.03 0.03 0.03 0.03 0.03 0.03 0.03 0.04 0.04 0.05 0.03 0.02
0.01 0.02 0.02 0.03 0.03 0.02 0.03 0.06 0.07 0.05 0.05 0.05 0.05 0.05 0.09 0.12 0.09 0.06 0.05 0.06 0.08 0.09 0.09 0.08 0.09 0.09 0.12 0.11 0.06 0.05 0.04 0.03 0.03 0.03 0.02 0.02 0.02 0.02 0.02 0.02 0.03 0.02 0.03
0.02 0.03 0.03 0.02 0.02 0.03 0.04 0.07 0.09 0.09 0.08 0.07 0.06 0.05 0.04 0.06 0.08 0.08 0.05 0.06 0.06 0.08 0.07 0.07 0.09 0.10 0.09 0.09 0.06 0.05 0.04 0.03 0.03 0.03 0.03 0.02 0.02 0.02 0.02 0.02 0.03 0.03 0.04
0.04 0.04 0.03 0.03 0.02 0.03 0.03 0.04 0.07 0.10 0.12 0.10 0.07 0.06 0.05 0.05 0.08 0.10 0.08 0.08 0.07 0.08 0.06 0.05 0.06 0.07 0.08 0.06 0.06 0.06 0.05 0.03 0.03 0.03 0.02 0.02 0.02 0.01 0.02 0.02 0.02 0.03 0.04
0.03 0.03 0.03 0.03 0.03 0.02 0.02 0.02 0.03 0.06 0.11 0.11 0.06 0.06 0.05 0.05 0.07 0.09 0.10 0.09 0.08 0.08 0.07 0.06 0.06 0.06 0.05 0.05 0.05 0.05 0.05 0.04 0.03 0.02 0.02 0.02 0.02 0.01 0.01 0.01 0.01 0.01 0.02
0.02 0.02 0.03 0.03 0.03 0.03 0.03 0.02 0.04 0.06 0.08 0.12 0.10 0.06 0.05 0.05 0.06 0.08 0.10 0.11 0.10 0.08 0.06 0.06 0.06 0.05 0.04 0.03 0.03 0.04 0.05 0.04 0.03 0.02 0.02 0.02 0.02 0.02 0.02 0.02 0.02 0.01 0.01
0.01 0.02 0.04 0.04 0.03 0.03 0.03 0.03 0.03 0.03 0.06 0.07 0.07 0.05 0.04 0.03 0.03 0.03 0.05 0.06 0.09 0.09 0.07 0.06 0.06 0.04 0.04 0.04 0.04 0.03 0.03 0.04 0.04 0.04 0.04 0.03 0.03 0.03 0.03 0.03 0.02 0.03 0.02
0.01 0.02 0.04 0.03 0.03 0.04 0.04 0.04 0.04 0.04 0.04 0.05 0.06 0.06 0.05 0.04 0.03 0.02 0.02 0.04 0.05 0.07 0.07 0.07 0.06 0.06 0.04 0.03 0.03 0.03 0.03 0.04 0.03 0.04 0.05 0.05 0.04 0.04 0.04 0.05 0.04 0.04 0.03
0.02 0.02 0.02 0.02 0.02 0.03 0.03 0.03 0.04 0.03 0.03 0.05 0.06 0.08 0.09 0.07 0.04 0.03 0.03 0.03 0.04 0.05 0.06 0.06 0.05 0.05 0.05 0.03 0.03 0.03 0.04 0.04 0.04 0.04 0.05 0.06 0.06 0.06 0.06 0.07 0.06 0.05 0.04
MSLP
1009.61 1009.46 1009.44 1009.56 1009.79 1010.06 1010.30 1010.48 1010.58 1010.61 1010.63 1010.69 1010.82 1011.05 1011.36 1011.70 1012.02 1012.27 1012.42 1012.47 1012.46 1012.41 1012.37 1012.37 1012.42 1012.51 1012.60 1012.66 1012.68 1012.64 1012.56 1012.48 1012.43 1012.45 1012.55 1012.74 1013.00 1013.30 1013.61 1013.91 1014.20 1014.48 1014.77
1009.82 1009.73 1009.76 1009.92 1010.15 1010.39 1010.58 1010.69 1010.72 1010.70 1010.70 1010.77 1010.95 1011.23 1011.60 1012.00 1012.36 1012.64 1012.79 1012.83 1012.79 1012.72 1012.67 1012.66 1012.71 1012.79 1012.88 1012.93 1012.93 1012.87 1012.77 1012.67 1012.61 1012.62 1012.73 1012.92 1013.19 1013.50 1013.81 1014.12 1014.40 1014.68 1014.96
1009.91 1009.88 1009.98 1010.17 1010.41 1010.63 1010.78 1010.84 1010.82 1010.78 1010.77 1010.85 1011.06 1011.39 1011.80 1012.24 1012.63 1012.91 1013.07 1013.11 1013.07 1013.00 1012.95 1012.95 1013.00 1013.08 1013.15 1013.18 1013.15 1013.06 1012.93 1012.82 1012.75 1012.77 1012.90 1013.12 1013.40 1013.72 1014.05 1014.35 1014.63 1014.90 1015.17
1009.86 1009.91 1010.06 1010.31 1010.57 1010.80 1010.94 1010.98 1010.94 1010.89 1010.88 1010.98 1011.22 1011.58 1012.01 1012.47 1012.86 1013.15 1013.31 1013.36 1013.33 1013.28 1013.24 1013.25 1013.30 1013.37 1013.42 1013.41 1013.34 1013.21 1013.06 1012.93 1012.87 1012.91 1013.06 1013.30 1013.61 1013.94 1014.27 1014.57 1014.84 1015.10 1015.36
1009.72 1009.83 1010.06 1010.37 1010.68 1010.94 1011.10 1011.15 1011.13 1011.09 1011.10 1011.22 1011.48 1011.85 1012.29 1012.73 1013.12 1013.40 1013.56 1013.61 1013.59 1013.56 1013.55 1013.57 1013.62 1013.67 1013.69 1013.64 1013.52 1013.35 1013.18 1013.04 1012.98 1013.05 1013.22 1013.49 1013.81 1014.14 1014.46 1014.74 1014.98 1015.22 1015.47
1009.54 1009.73 1010.04 1010.41 1010.79 1011.10 1011.30 1011.39 1011.40 1011.40 1011.44 1011.58 1011.85 1012.22 1012.64 1013.07 1013.42 1013.68 1013.82 1013.88 1013.88 1013.86 1013.87 1013.91 1013.95 1013.98 1013.96 1013.86 1013.70 1013.50 1013.30 1013.16 1013.12 1013.20 1013.40 1013.68 1014.00 1014.31 1014.59 1014.83 1015.04 1015.24 1015.47
1009.41 1009.67 1010.05 1010.49 1010.93 1011.29 1011.55 1011.69 1011.75 1011.79 1011.86 1012.03 1012.30 1012.66 1013.05 1013.44 1013.75 1013.97 1014.10 1014.14 1014.15 1014.16 1014.18 1014.22 1014.26 1014.27 1014.21 1014.08 1013.88 1013.66 1013.45 1013.32 1013.30 1013.40 1013.62 1013.89 1014.19 1014.47 1014.70 1014.87 1015.02 1015.17 1015.36
1009.38 1009.70 1010.14 1010.64 1011.12 1011.53 1011.83 1012.01 1012.12 1012.19 1012.30 1012.49 1012.76 1013.10 1013.46 1013.80 1014.07 1014.25 1014.34 1014.37 1014.38 1014.40 1014.44 1014.48 1014.52 1014.51 1014.43 1014.28 1014.07 1013.84 1013.64 1013.53 1013.53 1013.66 1013.88 1014.15 1014.42 1014.64 1014.80 1014.89 1014.95 1015.03 1015.17
1009.48 1009.85 1010.32 1010.85 1011.36 1011.78 1012.10 1012.30 1012.43 1012.53 1012.67 1012.86 1013.13 1013.45 1013.78 1014.08 1014.30 1014.45 1014.51 1014.53 1014.54 1014.57 1014.61 1014.67 1014.71 1014.70 1014.61 1014.45 1014.25 1014.03 1013.86 1013.78 1013.82 1013.98 1014.21 1014.47 1014.70 1014.85 1014.92 1014.92 1014.89 1014.89 1014.96
1009.70 1010.10 1010.59 1011.12 1011.61 1012.02 1012.32 1012.51 1012.64 1012.75 1012.89 1013.09 1013.36 1013.66 1013.97 1014.24 1014.43 1014.55 1014.60 1014.61 1014.62 1014.65 1014.71 1014.78 1014.82 1014.82 1014.75 1014.61 1014.43 1014.24 1014.11 1014.08 1014.15 1014.33 1014.57 1014.82 1015.01 1015.11 1015.11 1015.02 1014.90 1014.80 1014.80
1009.99 1010.41 1010.90 1011.41 1011.86 1012.22 1012.46 1012.62 1012.72 1012.81 1012.95 1013.15 1013.42 1013.72 1014.02 1014.27 1014.45 1014.56 1014.61 1014.62 1014.64 1014.69 1014.76 1014.84 1014.91 1014.92 1014.88 1014.77 1014.62 1014.48 1014.39 1014.40 1014.51 1014.71 1014.96 1015.20 1015.36 1015.42 1015.36 1015.20 1015.00 1014.82 1014.73
1010.32 1010.76 1011.24 1011.70 1012.09 1012.37 1012.55 1012.64 1012.70 1012.77 1012.89 1013.09 1013.36 1013.66 1013.96 1014.22 1014.41 1014.52 1014.57 1014.60 1014.64 1014.70 1014.79 1014.90 1014.99 1015.04 1015.02 1014.95 1014.84 1014.74 1014.69 1014.73 1014.86 1015.08 1015.33 1015.56 1015.72 1015.75 1015.66 1015.46 1015.20 1014.95 1014.79
1010.63 1011.09 1011.55 1011.97 1012.30 1012.51 1012.61 1012.64 1012.65 1012.68 1012.79 1012.98 1013.25 1013.56 1013.87 1014.14 1014.35 1014.48 1014.55 1014.61 1014.67 1014.75 1014.87 1015.00 1015.12 1015.20 1015.22 1015.19 1015.12 1015.05 1015.02 1015.07 1015.21 1015.42 1015.67 1015.89 1016.04 1016.07 1015.97 1015.76 1015.48 1015.19 1014.97
1010.88 1011.36 1011.82 1012.21 1012.49 1012.64 1012.69 1012.67 1012.63 1012.64 1012.73 1012.91 1013.18 1013.50 1013.82 1014.11 1014.33 1014.49 1014.59 1014.67 1014.76 1014.87 1015.01 1015.17 1015.32 1015.43 1015.49 1015.49 1015.45 1015.40 1015.38 1015.42 1015.54 1015.73 1015.95 1016.16 1016.31 1016.35 1016.27 1016.07 1015.80 1015.49 1015.22
1011.04 1011.55 1012.02 1012.40 1012.66 1012.79 1012.81 1012.76 1012.71 1012.70 1012.78 1012.96 1013.23 1013.54 1013.86 1014.16 1014.39 1014.57 1014.69 1014.80 1014.90 1015.04 1015.21 1015.39 1015.57 1015.72 1015.81 1015.84 1015.82 1015.78 1015.75 1015.77 1015.85 1016.00 1016.18 1016.37 1016.51 1016.57 1016.51 1016.35 1016.10 1015.80 1015.51
1011.08 1011.63 1012.13 1012.52 1012.79 1012.94 1012.97 1012.94 1012.90 1012.90 1012.97 1013.14 1013.39 1013.69 1014.00 1014.29 1014.52 1014.71 1014.84 1014.96 1015.09 1015.24 1015.43 1015.64 1015.84 1016.02 1016.15 1016.21 1016.21 1016.18 1016.14 1016.13 1016.16 1016.25 1016.38 1016.53 1016.65 1016.71 1016.69 1016.57 1016.35 1016.07 1015.77
1011.03 1011.61 1012.14 1012.56 1012.87 1013.06 1013.14 1013.16 1013.16 1013.18 1013.27 1013.43 1013.65 1013.92 1014.20 1014.46 1014.68 1014.85 1014.99 1015.12 1015.26 1015.42 1015.62 1015.85 1016.08 1016.29 1016.45 1016.55 1016.58 1016.57 1016.52 1016.48 1016.47 1016.50 1016.57 1016.66 1016.76 1016.82 1016.81 1016.72 1016.54 1016.29 1016.00
1010.89 1011.49 1012.04 1012.51 1012.87 1013.12 1013.28 1013.37 1013.42 1013.48 1013.58 1013.73 1013.93 1014.16 1014.39 1014.62 1014.81 1014.97 1015.10 1015.23 1015.37 1015.54 1015.75 1015.99 1016.25 1016.48 1016.68 1016.82 1016.90 1016.91 1016.88 1016.83 1016.78 1016.76 1016.78 1016.82 1016.88 1016.92 1016.91 1016.85 1016.70 1016.47 1016.19
1010.69 1011.29 1011.85 1012.35 1012.76 1013.09 1013.33 1013.50 1013.62 1013.73 1013.85 1013.98 1014.15 1014.33 1014.53 1014.71 1014.87 1015.02 1015.14 1015.27 1015.42 1015.59 1015.80 1016.05 1016.31 1016.58 1016.82 1017.00 1017.13 1017.19 1017.20 1017.16 1017.11 1017.06 1017.03 1017.02 1017.03 1017.05 1017.04 1016.98 1016.85 1016.65 1016.39
1010.45 1011.03 1011.58 1012.10 1012.56 1012.95 1013.27 1013.52 1013.71 1013.87 1014.00 1014.13 1014.27 1014.41 1014.57 1014.72 1014.86 1015.00 1015.12 1015.26 1015.40 1015.58 1015.79 1016.03 1016.30 1016.58 1016.85 1017.08 1017.27 1017.39 1017.45 1017.45 1017.42 1017.36 1017.31 1017.27 1017.24 1017.23 1017.21 1017.16 1017.05 1016.88 1016.64
1010.19 1010.73 1011.26 1011.78 1012.27 1012.71 1013.10 1013.42 1013.67 1013.87 1014.03 1014.15 1014.27 1014.39 1014.52 1014.65 1014.79 1014.94 1015.08 1015.22 1015.38 1015.55 1015.75 1015.98 1016.24 1016.52 1016.81 1017.08 1017.31 1017.50 1017.62 1017.68 1017.68 1017.65 1017.60 1017.54 1017.50 1017.47 1017.44 1017.39 1017.31 1017.18 1016.98
1009.89 1010.39 1010.90 1011.42 1011.92 1012.40 1012.84 1013.22 1013.52 1013.76 1013.93 1014.07 1014.18 1014.28 1014.40 1014.54 1014.70 1014.87 1015.04 1015.21 1015.39 1015.56 1015.75 1015.95 1016.18 1016.44 1016.73 1017.01 1017.28 1017.52 1017.70 1017.82 1017.88 1017.88 1017.85 1017.80 1017.76 1017.72 1017.70 1017.68 1017.63 1017.54 1017.40
1009.52 1010.01 1010.51 1011.02 1011.54 1012.05 1012.52 1012.94 1013.29 1013.56 1013.76 1013.90 1014.01 1014.12 1014.25 1014.41 1014.60 1014.81 1015.03 1015.25 1015.44 1015.63 1015.80 1015.97 1016.16 1016.39 1016.64 1016.91 1017.20 1017.46 1017.69 1017.86 1017.98 1018.02 1018.02 1018.00 1017.97 1017.95 1017.95 1017.96 1017.96 1017.94 1017.88
1009.04 1009.54 1010.05 1010.57 1011.11 1011.65 1012.17 1012.63 1013.01 1013.31 1013.52 1013.67 1013.80 1013.92 1014.07 1014.26 1014.50 1014.76 1015.04 1015.30 1015.53 1015.73 1015.89 1016.04 1016.18 1016.35 1016.56 1016.80 1017.06 1017.33 1017.58 1017.79 1017.94 1018.04 1018.08 1018.08 1018.08 1018.09 1018.13 1018.18 1018.25 1018.31 1018.34
1008.39 1008.93 1009.47 1010.04 1010.61 1011.19 1011.75 1012.25 1012.67 1013.00 1013.23 1013.40 1013.53 1013.67 1013.84 1014.07 1014.35 1014.66 1015.00 1015.31 1015.58 1015.80 1015.97 1016.09 1016.21 1016.33 1016.48 1016.67 1016.90 1017.15 1017.40 1017.62 1017.80 1017.92 1017.99 1018.03 1018.07 1018.11 1018.19 1018.30 1018.44 1018.58 1018.71
1007.52 1008.12 1008.73 1009.35 1009.99 1010.62 1011.23 1011.78 1012.24 1012.60 1012.86 1013.04 1013.19 1013.34 1013.53 1013.78 1014.09 1014.45 1014.83 1015.20 1015.52 1015.77 1015.96 1016.09 1016.18 1016.27 1016.37 1016.52 1016.71 1016.93 1017.16 1017.37 1017.56 1017.69 1017.79 1017.86 1017.92 1018.00 1018.12 1018.28 1018.48 1018.71 1018.94
Thickness
5819 5815 5810 5805 5802 5798 5795 5793 5790 5789 5787 5785 5784 5783 5782 5780 5779 5778 5777 5776 5774 5774 5773 5772 5770 5769 5768 5768 5767 5766 5765 5765 5764 5763 5762 5761 5759 5757 5755 5754 5753 5752 5750
5821 5812 5806 5803 5799 5796 5793 5790 5788 5786 5784 5782 5781 5780 5779 5777 5776 5775 5774 5773 5772 5772 5771 5769 5768 5767 5766 5765 5765 5764 5764 5763 5762 5761 5760 5759 5756 5755 5754 5753 5752 5750 5748
5819 5811 5803 5800 5797 5793 5790 5788 5785 5783 5781 5780 5778 5777 5776 5774 5773 5771 5771 5770 5769 5769 5768 5767 5766 5765 5764 5763 5763 5762 5762 5762 5761 5760 5758 5756 5754 5753 5752 5751 5749 5748 5746
5818 5809 5802 5797 5795 5791 5788 5786 5783 5781 5779 5777 5775 5774 5773 5771 5770 5769 5768 5767 5767 5766 5765 5765 5764 5763 5762 5761 5761 5761 5760 5760 5759 5758 5757 5755 5753 5752 5750 5749 5747 5745 5744
5817 5808 5800 5795 5792 5789 5786 5784 5781 5779 5777 5775 5773 5771 5770 5768 5767 5766 5765 5764 5763 5763 5763 5762 5762 5761 5760 5759 5759 5758 5758 5758 5757 5755 5755 5754 5752 5750 5748 5747 5745 5743 5742
5816 5807 5799 5794 5790 5788 5785 5782 5780 5777 5775 5773 5771 5770 5768 5766 5764 5763 5762 5761 5761 5760 5760 5760 5759 5759 5758 5757 5757 5757 5756 5756 5755 5755 5754 5752 5750 5748 5746 5745 5743 5742 5740
5814 5807 5798 5792 5789 5786 5783 5780 5778 5775 5773 5771 5769 5767 5765 5764 5762 5761 5760 5759 5758 5758 5757 5757 5757 5757 5756 5755 5755 5755 5755 5755 5754 5754 5753 5750 5748 5746 5744 5743 5741 5739 5738
5812 5804 5797 5791 5788 5784 5781 5778 5776 5773 5771 5769 5767 5765 5763 5761 5760 5759 5758 5757 5756 5755 5755 5755 5755 5755 5754 5754 5754 5754 5753 5753 5753 5753 5751 5748 5746 5744 5742 5740 5739 5738 5736
5812 5804 5796 5791 5786 5783 5780 5777 5774 5771 5770 5768 5765 5763 5762 5760 5758 5757 5756 5755 5754 5754 5753 5753 5753 5753 5753 5752 5752 5752 5752 5751 5751 5751 5750 5747 5745 5742 5740 5738 5737 5736 5735
5810 5804 5797 5793 5787 5783 5779 5776 5773 5770 5768 5766 5764 5762 5761 5759 5757 5756 5755 5754 5753 5752 5752 5752 5752 5752 5751 5751 5750 5751 5751 5750 5751 5750 5748 5745 5743 5741 5739 5737 5735 5735 5734
5805 5802 5798 5793 5789 5785 5780 5776 5772 5769 5767 5765 5763 5761 5759 5759 5757 5756 5755 5753 5752 5751 5750 5750 5750 5750 5750 5750 5750 5749 5749 5749 5750 5748 5746 5743 5742 5739 5737 5735 5734 5734 5733
5799 5799 5798 5793 5789 5785 5781 5775 5772 5770 5766 5765 5764 5761 5760 5759 5758 5757 5754 5752 5751 5750 5749 5748 5748 5748 5748 5749 5749 5748 5748 5749 5748 5747 5743 5741 5740 5738 5735 5734 5733 5732 5732
5800 5798 5796 5792 5788 5784 5780 5776 5773 5771 5767 5765 5764 5762 5760 5759 5758 5755 5753 5750 5749 5748 5748 5748 5747 5747 5747 5748 5747 5747 5748 5747 5746 5745 5741 5739 5738 5736 5734 5733 5732 5731 5730
5798 5795 5794 5791 5786 5783 5780 5776 5773 5771 5767 5765 5763 5761 5760 5758 5757 5755 5753 5751 5749 5748 5747 5747 5745 5746 5746 5745 5745 5745 5745 5745 5743 5741 5738 5737 5736 5734 5733 5732 5731 5729 5728
5796 5795 5792 5789 5784 5781 5778 5775 5773 5770 5767 5765 5762 5760 5759 5757 5756 5755 5752 5750 5749 5747 5746 5744 5743 5744 5743 5742 5742 5742 5742 5741 5740 5738 5735 5734 5734 5733 5732 5731 5729 5728 5726
5796 5793 5791 5787 5783 5780 5776 5773 5771 5769 5766 5764 5761 5759 5757 5756 5754 5753 5750 5748 5746 5745 5743 5742 5741 5741 5741 5740 5739 5739 5739 5738 5737 5735 5733 5732 5731 5731 5730 5729 5728 5726 5725
5796 5793 5789 5786 5782 5778 5774 5772 5770 5767 5765 5762 5760 5757 5756 5754 5752 5750 5748 5745 5744 5743 5741 5739 5738 5738 5738 5737 5736 5736 5736 5735 5734 5733 5731 5730 5729 5728 5728 5727 5726 5725 5724
5795 5790 5787 5786 5780 5775 5772 5769 5768 5765 5763 5761 5758 5756 5754 5752 5750 5747 5746 5744 5742 5741 5739 5737 5735 5734 5734 5734 5732 5733 5733 5733 5732 5731 5729 5729 5728 5727 5726 5725 5724 5723 5722
5794 5788 5784 5781 5777 5773 5770 5767 5765 5762 5760 5759 5756 5754 5752 5750 5747 5745 5743 5742 5740 5738 5736 5734 5731 5731 5729 5729 5729 5729 5730 5730 5729 5729 5727 5727 5726 5726 5724 5723 5721 5720 5719
5792 5787 5782 5778 5774 5770 5767 5764 5761 5759 5757 5756 5753 5751 5749 5746 5744 5742 5740 5738 5737 5735 5732 5730 5727 5727 5726 5726 5726 5726 5726 5726 5726 5725 5725 5724 5724 5724 5723 5722 5720 5718 5717
5788 5783 5779 5774 5771 5767 5763 5758 5755 5752 5752 5751 5750 5748 5745 5743 5741 5739 5737 5735 5733 5731 5729 5727 5724 5722 5721 5722 5719 5718 5720 5723 5723 5723 5722 5721 5721 5721 5721 5720 5719 5717 5715
5784 5780 5776 5772 5769 5765 5762 5758 5754 5752 5750 5749 5747 5744 5741 5739 5737 5736 5732 5731 5729 5727 5725 5723 5720 5718 5718 5719 5715 5710 5708 5710 5716 5721 5719 5718 5718 5718 5718 5718 5717 5716 5715
5781 5778 5775 5770 5767 5764 5760 5756 5752 5749 5746 5744 5741 5739 5738 5736 5734 5732 5729 5727 5726 5724 5722 5720 5718 5715 5712 5714 5714 5709 5703 5701 5705 5712 5714 5715 5715 5714 5715 5716 5715 5715 5714
5780 5777 5773 5768 5764 5761 5758 5753 5748 5743 5740 5740 5738 5737 5735 5733 5731 5729 5727 5724 5723 5721 5719 5717 5716 5714 5712 5709 5710 5710 5707 5705 5700 5699 5705 5710 5711 5711 5711 5713 5713 5712 5712
5779 5775 5770 5765 5760 5757 5754 5750 5746 5743 5740 5738 5736 5733 5731 5730 5728 5726 5724 5721 5719 5718 5716 5714 5713 5712 5711 5708 5706 5705 5704 5703 5702 5696 5695 5700 5704 5708 5709 5709 5709 5709 5709
5775 5771 5766 5760 5756 5753 5750 5746 5742 5740 5737 5733 5731 5728 5727 5726 5724 5723 5721 5718 5716 5715 5713 5712 5711 5709 5708 5707 5705 5703 5700 5698 5697 5696 5694 5695 5696 5702 5705 5706 5706 5706 5705